Location: ??
(34.4721°N, 135.6234°E)
Time: 03:38:22
(UTC+00:00)

Daily predictions for brighter satellites

Satellite Brightness Start Highest point End
(mag) Time Altitude Azimuth Time Altitude Azimuth Time Altitude Azimuth
SL-4 R/B 2.3 10:31:42 10° SW 10:36:12 82° SE 10:40:59 10° NE
MOS 1 4.4 10:32:10 10° SSE 10:37:46 63° ENE 10:43:24 10° N
STARLINK-1078 3.7 10:33:45 10° NW 10:37:54 72° NE 10:42:00 10° SE
Meteor 2-9 Rocket 4.1 10:34:10 10° N 10:39:30 87° ENE 10:44:51 10° S
STARLINK-1444 2.0 10:38:00 10° SW 10:40:02 73° NW 10:42:03 10° NE
SL-4 R/B 2.1 10:37:35 10° NW 10:40:16 41° WSW 10:42:45 10° S
STARLINK-1452 2.0 10:38:37 10° SW 10:40:39 71° NW 10:42:40 10° NE
Cosmos 2221 Rocket 3.6 10:36:40 10° S 10:41:09 72° E 10:45:42 10° N
STARLINK-1450 2.1 10:39:31 10° SW 10:41:29 67° NW 10:43:27 10° NE
STARLINK-1392 2.1 10:39:43 10° SW 10:41:41 66° NW 10:43:39 10° NE
STARLINK-1415 2.1 10:39:43 10° SW 10:41:42 66° NW 10:43:39 10° NE
STARLINK-1394 2.1 10:39:45 10° SW 10:41:43 66° NW 10:43:41 10° NE
STARLINK-1399 2.1 10:39:44 10° SW 10:41:43 66° NW 10:43:40 10° NE
STARLINK-1395 2.1 10:39:45 10° SW 10:41:44 66° NW 10:43:41 10° NE
STARLINK-1393 2.1 10:39:46 10° SW 10:41:44 66° NW 10:43:42 10° NE
STARLINK-1401 2.1 10:39:46 10° SW 10:41:44 66° NW 10:43:42 10° NE
STARLINK-1396 2.1 10:39:46 10° SW 10:41:45 66° NW 10:43:42 10° NE
STARLINK-1397 2.1 10:39:46 10° SW 10:41:45 66° NW 10:43:42 10° NE
STARLINK-1453 2.1 10:39:47 10° SW 10:41:45 66° NW 10:43:42 10° NE
STARLINK-1404 2.1 10:39:47 10° SW 10:41:47 66° NW 10:43:44 10° NE
STARLINK-1417 2.1 10:39:49 10° SW 10:41:48 66° NW 10:43:45 10° NE
STARLINK-1402 2.1 10:39:49 10° SW 10:41:48 66° NW 10:43:45 10° NE
NOSS 2-2 (E) 3.4 10:38:15 10° SW 10:41:48 71° WNW 10:45:29 10° NNE
STARLINK-1413 2.1 10:39:50 10° SW 10:41:49 66° NW 10:43:46 10° NE
STARLINK-1406 2.1 10:39:51 10° SW 10:41:49 66° NW 10:43:47 10° NE
STARLINK-1440 2.1 10:39:52 10° SW 10:41:51 66° NW 10:43:48 10° NE
STARLINK-1445 2.1 10:39:53 10° SW 10:41:52 66° NW 10:43:49 10° NE
STARLINK-1443 2.1 10:39:54 10° SW 10:41:53 66° NW 10:43:50 10° NE
STARLINK-1454 2.1 10:39:54 10° SW 10:41:53 66° NW 10:43:50 10° NE
STARLINK-1414 2.1 10:39:53 10° SW 10:41:53 66° NW 10:43:52 10° NE
STARLINK-1457 2.1 10:39:55 10° SW 10:41:54 66° NW 10:43:51 10° NE
STARLINK-1456 2.1 10:39:56 10° SW 10:41:54 66° NW 10:43:52 10° NE
STARLINK-1451 2.1 10:39:56 10° SW 10:41:55 65° NW 10:43:52 10° NE
STARLINK-1416 2.1 10:39:55 10° SW 10:41:55 66° NW 10:43:54 10° NE
STARLINK-1408 2.1 10:39:56 10° SW 10:41:55 66° NW 10:43:55 10° NE
STARLINK-1442 2.1 10:39:57 10° SW 10:41:56 65° NW 10:43:54 10° NE
STARLINK-1405 2.1 10:40:01 10° SW 10:41:59 65° NW 10:43:56 10° NE
STARLINK-1421 2.1 10:40:01 10° SW 10:41:59 65° NW 10:43:56 10° NE
STARLINK-1410 2.1 10:40:02 10° SW 10:42:00 65° NW 10:43:57 10° NE
STARLINK-1419 2.1 10:40:00 10° SW 10:42:00 66° NW 10:43:59 10° NE
STARLINK-1400 2.1 10:40:02 10° SW 10:42:00 65° NW 10:43:57 10° NE
STARLINK-1436 (VISORSAT) 2.1 10:40:01 10° SW 10:42:00 66° NW 10:43:59 10° NE
STARLINK-1407 2.1 10:40:02 10° SW 10:42:01 65° NW 10:43:58 10° NE
STARLINK-1398 2.1 10:40:02 10° SW 10:42:01 66° NW 10:44:01 10° NE
STARLINK-1439 2.1 10:40:02 10° SW 10:42:02 65° NW 10:43:58 10° NE
STARLINK-1409 2.1 10:40:03 10° SW 10:42:02 65° NW 10:43:59 10° NE
STARLINK-1418 2.1 10:40:05 10° SW 10:42:03 65° NW 10:44:00 10° NE
STARLINK-1370 2.1 10:40:04 10° SW 10:42:03 65° NW 10:44:00 10° NE
STARLINK-1351 2.1 10:40:04 10° SW 10:42:03 65° NW 10:44:00 10° NE
STARLINK-1434 2.1 10:40:05 10° SW 10:42:04 65° NW 10:44:01 10° NE
STARLINK-1403 2.1 10:40:06 10° SW 10:42:04 65° NW 10:44:02 10° NE
STARLINK-1422 2.1 10:40:05 10° SW 10:42:05 66° NW 10:44:04 10° NE
STARLINK-1420 2.1 10:40:05 10° SW 10:42:06 66° NW 10:44:05 10° NE
STARLINK-1433 2.1 10:40:08 10° SW 10:42:07 65° NW 10:44:04 10° NE
STARLINK-1411 2.1 10:40:09 10° SW 10:42:07 65° NW 10:44:05 10° NE
STARLINK-1460 2.2 10:40:08 10° SW 10:42:08 65° NW 10:44:07 10° NE
STARLINK-1438 2.1 10:40:10 10° SW 10:42:08 65° NW 10:44:06 10° NE
STARLINK-1458 2.2 10:40:12 10° SW 10:42:12 65° NW 10:44:11 10° NE
STARLINK-1423 2.2 10:40:14 10° SW 10:42:14 65° NW 10:44:13 10° NE
STARLINK-1446 2.2 10:40:15 10° SW 10:42:15 65° NW 10:44:14 10° NE
STARLINK-1437 2.2 10:40:17 10° SW 10:42:17 65° NW 10:44:16 10° NE
STARLINK-1447 2.2 10:40:19 10° SW 10:42:19 65° NW 10:44:19 10° NE
STARLINK-1455 2.2 10:40:20 10° SW 10:42:20 65° NW 10:44:19 10° NE
STARLINK-1441 2.2 10:40:21 10° SW 10:42:21 65° NW 10:44:20 10° NE
STARLINK-1448 2.2 10:40:24 10° SW 10:42:24 65° NW 10:44:24 10° NE
STARLINK-1449 2.2 10:40:26 10° SW 10:42:26 65° NW 10:44:26 10° NE
STARLINK-1412 2.2 10:40:34 10° SW 10:42:35 64° NW 10:44:34 10° NE
CZ-2C R/B 3.9 10:38:20 10° NNE 10:42:46 50° E 10:47:14 10° S
STARLINK-1108 3.6 10:38:43 10° NW 10:42:52 81° NE 10:47:00 10° SE
FREGAT/IRIS 2.3 10:44:27 10° S 10:47:05 79° W 10:49:45 10° NNW
Cosmos 1437 Rocket 3.0 10:44:07 10° SSE 10:47:42 44° E 10:51:21 10° NNE
STARLINK-1071 3.6 10:43:42 10° NW 10:47:51 89° NE 10:51:52 11° SE
MetOp-A 4.5 10:43:59 10° SSE 10:49:08 50° ENE 10:54:18 10° N
ASTRO E2 3.1 10:45:30 10° W 10:49:19 47° S 10:52:55 11° ESE
SWIFT 4.5 10:49:06 10° SSW 10:50:51 12° S 10:52:36 10° SSE
STARLINK-1110 3.6 10:47:09 10° NW 10:51:18 84° SW 10:55:10 12° SE
ATLAS CENTAUR R/B 3.4 10:52:02 11° ESE 10:52:40 11° ESE 10:53:53 10° E
Ariane Rocket 3.4 10:49:07 10° S 10:54:09 68° WSW 10:59:15 10° NNW
STARLINK-1124 3.7 10:53:40 10° NW 10:57:47 73° SW 11:01:26 13° SE
Okean 2 Rocket 3.1 10:53:48 10° N 10:58:11 66° E 11:02:31 10° SSE
Cosmos 1110 Rocket 4.0 10:53:09 10° S 10:58:16 64° ESE 11:03:23 10° NNE
Cosmos 1741 Rocket 4.3 10:54:21 10° N 10:59:26 52° ENE 11:04:04 12° SE
Sich 1 Rocket 4.0 10:55:50 10° NNW 11:00:23 67° W 11:04:52 10° S
USA 267 3.8 10:55:42 10° SSE 11:02:03 53° SW 11:08:27 10° NW
STARLINK-1122 3.8 10:58:40 10° NW 11:02:46 65° SW 11:06:13 14° SSE
MOS 1 Rocket 3.5 10:59:00 10° N 11:03:15 67° WNW 11:07:30 10° SSW
DMSP B5D2-2 4.1 10:58:04 10° NNE 11:03:23 88° ESE 11:08:38 10° SSW
Cosmos 1634 Rocket 4.2 10:57:35 10° N 11:03:57 82° W 11:10:16 10° S
Sakura Rocket 4.3 10:59:33 10° WSW 11:04:38 46° S 11:10:33 14° ESE
STARLINK-29 3.1 11:02:01 10° SW 11:05:14 75° NW 11:08:27 10° NE
CZ-2C R/B 4.4 11:00:10 10° SSW 11:05:25 43° W 11:10:53 10° NNW
Okean 3 4.5 11:01:29 10° SSW 11:05:39 49° W 11:09:51 10° N
Resurs 01 Rocket 2.4 11:02:32 14° SE 11:05:54 35° ENE 11:09:57 10° N
Cosmos 1850 Rocket 4.1 11:00:45 10° N 11:06:04 64° ENE 11:10:46 13° SSE
Cosmos 1300 Rocket 3.5 11:02:03 10° N 11:06:29 72° E 11:10:51 10° SSE
USA 186 3.4 11:04:22 10° SSW 11:06:42 28° W 11:09:11 10° NW
STARLINK-1126 4.0 11:03:20 10° NW 11:07:24 58° SW 11:10:41 15° SSE
NOSS 2-2 (C) 4.4 11:04:12 10° SW 11:07:38 43° NW 11:11:10 10° NNE
Cosmos 304 Rocket 4.2 11:05:35 10° SSW 11:10:18 65° WNW 11:15:04 10° N
Cosmos 1331 Rocket 3.9 11:05:20 10° S 11:10:27 76° ESE 11:15:38 10° NNE
STARLINK-1082 4.2 11:08:41 10° NW 11:12:42 51° SW 11:15:48 16° SSE
ATLAS 2AS CENTAUR R/B 3.5 11:05:45 10° S 11:12:44 37° ESE 11:19:51 10° NE
ISS -2.2 11:10:28 10° WNW 11:13:25 28° SW 11:15:48 13° S
Cosmos 2151 Rocket 3.6 11:09:35 10° N 11:14:06 68° E 11:18:04 13° SSE
STARLINK-1100 4.4 11:13:40 10° WNW 11:17:38 45° SW 11:20:33 17° SSE
Resurs 1-3 3.5 11:14:45 13° SSE 11:18:37 77° ENE 11:23:01 10° N
BREEZE-M DEB 3.4 11:18:36 10° WSW 11:20:37 35° NNW 11:23:14 10° NE
ARGOS 4.5 11:17:07 10° SSW 11:22:05 38° W 11:27:05 10° NNW
STARLINK-1371 4.4 11:19:31 10° S 11:22:43 25° SE 11:25:57 10° ENE
STARLINK-1320 3.6 11:20:01 10° SSW 11:22:48 30° SE 11:25:36 10° ENE
STARLINK-1322 3.6 11:20:21 10° SSW 11:23:09 31° SE 11:25:57 10° ENE
Cosmos 1378 Rocket 3.5 11:19:07 10° S 11:23:27 67° E 11:27:48 10° NNE
STARLINK-1324 3.5 11:20:40 10° SSW 11:23:27 31° SE 11:26:16 10° ENE
Cosmos 1674 Rocket 3.5 11:19:13 10° S 11:23:34 89° W 11:28:00 10° N
STARLINK-1294 3.5 11:20:59 10° SSW 11:23:45 31° SE 11:26:32 10° ENE
STARLINK-1261 3.5 11:21:20 10° SSW 11:24:09 32° SE 11:26:58 10° ENE
Cosmos 1302 Rocket 4.2 11:19:20 10° S 11:24:24 49° ESE 11:29:31 10° NNE
STARLINK-1325 3.5 11:21:41 10° SSW 11:24:29 32° SE 11:27:19 10° ENE
SPOT 3 Rocket 3.6 11:19:53 11° SSE 11:24:48 85° WSW 11:30:00 10° NNW
STARLINK-1333 3.5 11:22:01 10° SSW 11:24:51 32° SE 11:27:41 10° ENE
STARLINK-1334 3.5 11:22:20 10° SSW 11:25:09 33° SE 11:28:00 10° ENE
STARLINK-1326 3.5 11:22:39 10° SSW 11:25:29 33° SE 11:28:19 10° ENE
STARLINK-1323 3.5 11:23:00 10° SSW 11:25:50 33° SE 11:28:41 10° ENE
STARLINK-1349 3.4 11:23:17 10° SSW 11:26:08 33° SE 11:28:59 10° ENE
STARLINK-1336 3.4 11:23:38 10° SSW 11:26:28 34° SE 11:29:20 10° ENE
CZ-2C R/B 3.3 11:20:59 10° N 11:26:31 60° WNW 11:31:58 10° SSW
Aureole 2 4.5 11:23:54 10° N 11:26:44 44° ENE 11:27:37 32° ESE
STARLINK-1331 3.4 11:24:00 10° SSW 11:26:51 34° SE 11:29:43 10° ENE
STARLINK-1341 4.3 11:23:32 10° S 11:26:51 27° SE 11:30:11 10° ENE
STARLINK-1344 3.4 11:24:18 10° SSW 11:27:09 34° SE 11:30:02 10° ENE
STARLINK-1343 3.4 11:24:39 10° SSW 11:27:31 35° SE 11:30:24 10° ENE
H-2A ROCKET BODY 3.6 11:23:25 10° SSW 11:27:46 33° SE 11:42:26 10° E
STARLINK-1346 3.4 11:24:58 10° SSW 11:27:49 35° SE 11:30:43 10° ENE
STARLINK-1328 3.4 11:25:21 10° SSW 11:28:13 36° SE 11:31:07 10° ENE
STARLINK-1354 3.3 11:25:39 10° SSW 11:28:32 36° SE 11:31:25 10° ENE
STARLINK-1347 3.3 11:25:57 10° SSW 11:28:49 36° SE 11:31:43 10° ENE
STARLINK-1357 3.3 11:26:20 10° SSW 11:29:13 37° SE 11:32:08 10° ENE
STARLINK-1335 3.3 11:26:38 10° SSW 11:29:32 37° SE 11:32:26 10° ENE
STARLINK-1327 3.3 11:26:59 10° SSW 11:29:53 37° SE 11:32:47 10° ENE
STARLINK-1098 4.4 11:25:59 10° NNW 11:29:55 41° NE 11:32:08 22° E
STARLINK-1340 3.3 11:27:18 10° SSW 11:30:12 38° SE 11:33:07 10° ENE
STARLINK-1356 3.3 11:27:39 10° SSW 11:30:33 38° SE 11:33:28 10° ENE
Cosmos 1943 Rocket 2.1 11:25:14 10° SSW 11:30:45 79° ESE 11:36:21 10° NNE
STARLINK-1345 3.2 11:27:57 10° SSW 11:30:52 38° SE 11:33:48 10° ENE
STARLINK-1374 4.2 11:27:30 10° S 11:30:54 30° SE 11:34:20 10° ENE
STARLINK-1355 3.2 11:28:17 10° SSW 11:31:13 39° SE 11:34:09 10° ENE
STARLINK-1321 3.2 11:28:37 10° SSW 11:31:33 39° SE 11:34:29 10° ENE
H-2A R/B 4.2 11:27:40 10° SW 11:31:36 23° W 11:35:39 10° NW
STARLINK-1358 3.2 11:29:00 10° SSW 11:31:56 40° SE 11:34:52 10° ENE
Cosmos 1378 3.4 11:30:22 27° SSE 11:31:59 45° E 11:35:32 10° NNE
STARLINK-1332 3.2 11:29:18 10° SSW 11:32:13 40° SE 11:35:10 10° ENE
STARLINK-1348 3.2 11:29:36 10° SSW 11:32:32 40° SE 11:35:29 10° ENE
STARLINK-1330 3.2 11:29:58 10° SSW 11:32:54 41° SE 11:35:52 10° ENE
STARLINK-1363 3.2 11:30:15 10° SSW 11:33:12 41° SE 11:36:10 10° ENE
STARLINK-1337 3.1 11:30:38 10° SSW 11:33:35 42° SE 11:36:33 10° ENE
STARLINK-1342 3.1 11:30:58 10° SSW 11:33:56 42° SE 11:36:54 10° ENE
STARLINK-1364 3.1 11:31:18 10° SSW 11:34:16 43° SE 11:37:14 10° ENE
STARLINK-1376 3.1 11:31:38 10° SSW 11:34:35 43° SE 11:37:34 10° ENE
STARLINK-1123 4.3 11:30:55 10° NNW 11:34:55 45° NE 11:36:55 25° E
STARLINK-1360 3.1 11:31:58 10° SSW 11:34:56 44° SE 11:37:55 10° ENE
STARLINK-1339 4.0 11:31:35 10° SSW 11:35:05 33° SE 11:38:36 10° ENE
STARLINK-1361 3.1 11:32:18 10° SSW 11:35:16 44° SE 11:38:15 10° ENE
STARLINK-1367 3.1 11:32:36 10° SSW 11:35:34 44° SE 11:38:32 10° ENE
STARLINK-1366 3.0 11:32:57 10° SSW 11:35:56 45° SE 11:38:55 10° ENE
Cosmos 2180 Rocket 4.5 11:30:34 10° N 11:36:56 87° E 11:42:09 15° S
STARLINK-1377 3.9 11:35:40 10° SSW 11:39:14 37° SE 11:42:50 10° ENE
STARLINK-1097 4.1 11:35:52 10° NW 11:39:54 50° NE 11:41:42 29° ESE
STARLINK-1353 3.8 11:39:48 10° SSW 11:43:27 41° SE 11:47:07 10° ENE
SL-8 R/B 4.2 11:39:42 10° NW 11:44:23 52° NNE 11:46:53 26° E
STARLINK-1099 3.9 11:40:48 10° NW 11:44:52 56° NE 11:46:28 33° ESE
Cosmos 292 Rocket 4.1 11:42:53 26° SSE 11:45:11 46° ESE 11:49:49 10° NNE
Cosmos 1805 3.9 11:42:22 10° NNE 11:46:00 36° E 11:46:38 33° ESE
STARLINK-1375 3.6 11:43:55 10° SSW 11:47:38 45° SE 11:51:21 10° ENE
Cosmos 1975 Rocket 3.6 11:48:13 34° SE 11:49:12 40° E 11:53:19 10° NNE
STARLINK-1104 3.8 11:45:46 10° NW 11:49:53 62° NE 11:51:16 38° ESE
Cosmos 1656 Rocket 4.2 11:49:08 29° SE 11:50:57 37° ESE 11:56:03 10° NE
SAR-Lupe-2 3.5 11:48:00 10° NNE 11:51:34 59° E 11:52:15 48° SSE
STARLINK-1350 3.5 11:48:04 10° SSW 11:51:50 50° SE 11:55:36 10° NE
STARLINK-1144 3.7 11:50:43 10° NW 11:54:51 69° NE 11:56:02 43° ESE
STARLINK-1352 3.4 11:52:21 10° SSW 11:56:10 56° SE 12:00:00 10° NE
